星链-5900 (STARLINK-5900 )

导读 | 星芒AI

STARLINK-5900 是 SpaceX Starlink 卫星互联网项目中的一颗低轨卫星,属于第二代 Starlink 卫星(v1.5 或 v2 架构)。它运行在约 550 公里的轨道高度,旨在为全球用户提供高速、低延迟的宽带互联网服务。该卫星采用先进通信技术,支持多点波束和激光链路,提升网络效率与覆盖范围。STARLINK-5900 的部署有助于扩大 Starlink 在偏远地区的网络接入能力,并增强整体星座的冗余与稳定性。

基本信息
目录编号:
55948
目录名称:
STARLINK-5900
国际标识:
2023-037AL
轨道中心:
EARTH
卫星名称:
星链-5900
卫星全名:
星链-5900 (STARLINK-5900 )
卫星状态:
在轨 (已飞行963 天)
发射日期:
2023-03-17 UTC
国别 :
美国 (US)
星等 :
--
轨道信息
数据来源 国际轨道数据
星历时间: 2025-11-04T01:39:05+0800
13小时前
查看轨道信息
半长轴: 6950.192km
偏心率: 0.0002926
轨道倾角: 70.000°
近地点辐角 271.684°
升交点赤经 222.143°
平近点角 88.399°
近地点: 570.023km
远地点: 574.091km
周期: 96.107分钟
每日圈数: 14.983305
详细信息
固有亮度:
5
最大亮度:
2.5
卫星平台:
Starlink v1.5
覆盖范围:
全球
运营商:
太空探索技术公司
运营商所在国:
美国
制造商(研发单位):
太空探索技术公司
制造商所在国:
美国
使用方式:
暂无
卫星简介
星链(Starlink)计划是由太空探索技术公司(SpaceX)提出的一个巨型低轨卫星互联网星座项目,计划在2019年至2024年间在太空搭建由约1.2万颗卫星组成的“星链”网络,其中1584颗将部署在地球上空550千米处的近地轨道,并从2020年开始工作。该卫星仍在工作。
2D轨道图
3D轨道图
轨道高度分析图
轨道倾角分析图
轨道综合分析图
查看轨道综合分析图